Pitt Meadows, British Columbia

7:22 AM PDT on October 23, 2017 (GMT -0700)
Pitt Meadows

Weather History for CWMM - September, 2012

Change the Weather History Date:

Saturday, September 22, 2012

  Actual Average Record
Temperature  
Mean Temperature 59 °F -  
Max Temperature 63 °F - - ()
Min Temperature 55 °F - - ()
Degree Days  
Heating Degree Days 6    
Growing Degree Days 9 (Base 50)    
Moisture  
Dew Point 52 °F    
Average Humidity 78    
Maximum Humidity 92    
Minimum Humidity 53    
Precipitation  
Precipitation 0.00 in - - ()
Sea Level Pressure  
Sea Level Pressure 30.16 in    
Wind  
Wind Speed 1 mph ()    
Max Wind Speed 4 mph    
Max Gust Speed -    
T = Trace of Precipitation, MM = Missing Value Source: Averaged Metar Reports

Daily Weather History Graph

Daily Weather History Graph

Search for Another Location

Airport or City:

Trip Planner

Search our weather history database for the weather conditions in past years. The results will help you decide how hot, cold, wet, or windy it might be!

Date:

Astronomy

Sep. 22, 2012 Rise Set
Actual Time 6:58 AM PDT 7:07 PM PDT
Civil Twilight 6:26 AM PDT 7:39 PM PDT
Nautical Twilight 5:48 AM PDT 8:16 PM PDT
Astronomical Twilight 5:10 AM PDT 8:54 PM PDT
Moon 2:52 PM PDT (9/22) 11:47 PM PDT (9/22)
Length of Visible Light 13h 12m
Length of Day
12h 09m
Waxing Crescent, 50% of the Moon is Illuminated
Sep 22
Waxing Crescent
Sep 22
First Quarter
Sep 29
Full
Oct 8
Last Quarter
Oct 15
New

Hourly Weather History & Observations

Time (PDT) Temp. Dew Point Humidity Pressure Visibility Wind Dir Wind Speed Gust Speed Precip Events Conditions
12:00 AM 57.2 °F 53.1 °F 86% 30.16 in - NNE 1.2 mph - N/A   Unknown
1:00 AM 57.6 °F 53.4 °F 86% 30.16 in - Calm Calm - N/A   Unknown
2:00 AM 57.0 °F 53.8 °F 89% 30.16 in - SE 1.2 mph - N/A   Unknown
3:00 AM 57.4 °F 53.4 °F 87% 30.17 in - South 1.2 mph - N/A   Unknown
4:00 AM 56.1 °F 54.0 °F 92% 30.17 in - NE 1.2 mph - N/A   Unknown
5:00 AM 56 °F 54 °F 90% 30.17 in - NNE 2.3 mph - -  
6:00 AM 55.9 °F 53.6 °F 92% 30.16 in - NNE 2.3 mph - N/A   Unknown
7:00 AM 55.9 °F 53.6 °F 92% 30.16 in - Calm Calm - N/A   Unknown
8:00 AM 56.3 °F 53.6 °F 91% 30.16 in - Calm Calm - N/A   Unknown
9:00 AM 56.8 °F 54.3 °F 91% 30.17 in - Calm Calm - N/A   Unknown
10:00 AM 57.7 °F 54.5 °F 89% 30.17 in - West 1.2 mph - N/A   Unknown
11:00 AM 59 °F 54 °F 77% 30.17 in - SSW 2.3 mph - -  
11:00 AM 58.8 °F 53.6 °F 83% 30.17 in - SSW 2.3 mph - N/A   Unknown
12:00 PM 59.7 °F 53.1 °F 79% 30.16 in - SSW 1.2 mph - N/A   Unknown
1:00 PM 60.4 °F 52.2 °F 74% 30.16 in - SW 2.3 mph - N/A   Unknown
2:00 PM 61.2 °F 51.4 °F 70% 30.16 in - South 1.2 mph - N/A   Unknown
3:00 PM 61.5 °F 50.9 °F 68% 30.15 in - SSE 2.3 mph - N/A   Unknown
4:00 PM 62.2 °F 50.7 °F 66% 30.14 in - South 3.5 mph - N/A   Unknown
5:00 PM 63 °F 50 °F 53% 30.14 in - ESE 1.2 mph - -  
5:00 PM 62.8 °F 50.2 °F 63% 30.14 in - ESE 1.2 mph - N/A   Unknown
6:00 PM 62.6 °F 50.4 °F 64% 30.14 in - South 1.2 mph - N/A   Unknown
7:00 PM 61.5 °F 52.3 °F 72% 30.14 in - SE 3.5 mph - N/A   Unknown
8:00 PM 60.6 °F 51.6 °F 72% 30.15 in - Calm Calm - N/A   Unknown
9:00 PM 58.8 °F 47.8 °F 67% 30.15 in - South 2.3 mph - N/A   Unknown
10:00 PM 58.8 °F 47.7 °F 66% 30.15 in - West 1.2 mph - N/A   Unknown
11:00 PM 58 °F 50 °F 67% 30.15 in - Calm Calm - -  
11:00 PM 57.9 °F 50.0 °F 75% 30.15 in - Calm Calm - N/A   Unknown